Location: Unspecified
(52.2592°N, 0.0000°E)
Time: 18:32:35
(UTC+00:00)

Vanguard 1 - Visible Passes

Search period start: 04 April 2026 00:00
Search period end: 14 April 2026 00:00
Orbit: 654 x 3817 km, 34.2° (Epoch: 28 March)

Date Brightness Start Highest point End Pass type
(mag) Time Alt. Az. Time Alt. Az. Time Alt. Az.
4 Apr 12.9 01:49:58 21° SSE 01:51:28 22° SSE 01:59:58 10° ESE visible
4 Apr 12.3 04:02:29 13° SW 04:12:24 28° S 04:19:48 10° SE visible
5 Apr 12.8 02:07:36 24° S 02:10:35 26° SSE 02:19:38 10° ESE visible
5 Apr 12.3 04:20:06 11° SW 04:31:25 29° S 04:38:48 10° SE visible
6 Apr 13.4 00:12:39 15° SE 00:12:39 15° SE 00:16:43 10° ESE visible
6 Apr 12.7 02:25:08 25° SSW 02:29:41 29° SSE 02:39:03 10° ESE visible
6 Apr 12.3 04:38:45 10° WSW 04:50:24 29° S 04:57:42 10° SE visible
7 Apr 13.2 00:30:08 20° SE 00:30:08 20° SE 00:37:13 10° ESE visible
7 Apr 12.5 02:42:38 25° SSW 02:48:48 32° S 02:58:17 10° ESE visible
8 Apr 13.0 00:47:33 25° SSE 00:47:33 25° SSE 00:57:09 10° ESE visible
8 Apr 12.5 03:00:02 23° SW 03:07:52 34° S 03:17:24 10° ESE visible
9 Apr 12.9 01:04:52 30° SSE 01:05:18 30° SSE 01:16:45 10° ESE visible
9 Apr 12.4 03:17:21 21° SW 03:26:56 35° S 03:36:25 10° ESE visible
9 Apr 13.5 23:09:38 15° ESE 23:09:38 15° ESE 23:13:19 10° ESE visible
10 Apr 12.8 01:22:07 32° S 01:24:23 33° SSE 01:36:08 10° ESE visible
10 Apr 12.4 03:34:35 17° WSW 03:45:57 35° S 03:55:19 10° SE visible
10 Apr 13.3 23:26:47 21° SE 23:26:47 21° SE 23:33:41 10° ESE visible
11 Apr 12.7 01:39:14 33° SSW 01:43:30 36° S 01:55:24 10° ESE visible
11 Apr 12.4 03:51:42 13° WSW 04:04:55 34° SSW 04:14:07 10° SE visible
11 Apr13.921:31:20E21:31:20E21:01:56Svisible
11 Apr 13.1 23:43:47 27° SE 23:43:47 27° SE 23:53:35 10° ESE visible
12 Apr 12.6 01:56:14 31° SSW 02:02:36 38° S 02:14:31 10° ESE visible
12 Apr 12.4 04:09:24 10° WSW 04:23:48 32° SSW 04:32:48 10° SE visible
12 Apr13.721:48:11ESE21:48:11ESE21:21:42Svisible
13 Apr 13.0 00:00:37 32° SSE 00:00:37 32° SSE 00:13:10 10° ESE visible
13 Apr 12.6 02:13:02 28° SW 02:21:41 40° S 02:33:33 10° ESE visible
13 Apr 12.5 04:28:56 10° WSW 04:42:35 30° SSW 04:51:19 10° SSE visible
13 Apr 13.5 21:41:39 10° S 22:04:47 16° ESE 22:08:52 10° E visible
